• Join FlightAware (Why Join?)
  • Login
  • US Flag 
09:10AM EDT


 

Airport Tracker/Info


-or-


 

Live Flight TrackerFlight Track Log ✈ FDX584 ✈ 19-Apr-2013 ✈ KMEM - KMCI

Flight Track Log - Related Links

Times and Time Zones

All times are in EDT time to prevent confusion due to time zone crossing. See the FDX584 flight status page for this flight to view local times or setup timezone preferences in your user account.

Time Position Orientation Groundspeed Altitude Reporting Facility
EDT Latitude Longitude Course Direction KTS MPH feet Rate Location/Type
06:24PM 35.0167 -89.9667 180° South 176 203 900  Level KMEM
06:24PM 35.0000 -89.9667 180° South 175 201 1,400 1,500 Climbing KMEM
06:25PM 34.9667 -90.0000 219° Southwest 227 261 2,900 2,160 Climbing KMEM
06:26PM 34.9667 -90.0833 270° West 254 292 5,700 2,820 Climbing KMEM
06:27PM 35.0000 -90.1500 301° West 234 269 8,600 2,340 Climbing KMEM
06:28PM 35.0500 -90.1833 331° Northwest 295 339 10,400 1,560 Climbing KMEM
06:28PM 35.0864 -90.1869 355° North 319 367 10,600 1,500 Climbing Memphis Center
06:29PM 35.1825 -90.1639 11° North 359 413 12,400 1,860 Climbing Memphis Center
06:30PM 35.2867 -90.1433 North 399 459 14,400 1,920 Climbing Memphis Center
06:31PM 35.3931 -90.1203 10° North 389 448 16,300 1,680 Climbing Memphis Center
06:32PM 35.4931 -90.0994 10° North 389 448 17,800 1,560 Climbing Memphis Center
06:33PM 35.6056 -90.0736 11° North 400 460 19,500 1,620 Climbing Memphis Center
06:34PM 35.7078 -90.0886 353° North 400 460 21,100 1,500 Climbing Memphis Center
06:35PM 35.7997 -90.1600 328° Northwest 370 426 22,600 1,320 Climbing Memphis Center
06:36PM 35.8625 -90.2725 305° West 367 422 23,800 1,140 Climbing Memphis Center
06:37PM 35.9189 -90.3853 302° West 379 436 24,900 1,080 Climbing Memphis Center
06:38PM 35.9772 -90.5031 301° West 389 448 26,000 1,020 Climbing Memphis Center
06:39PM 36.0375 -90.6239 302° West 406 467 27,000 960 Climbing Memphis Center
06:40PM 36.1081 -90.7397 307° West 418 481 28,000 960 Climbing Memphis Center
06:41PM 36.1828 -90.8533 309° West 423 487 29,000 900 Climbing Memphis Center
06:42PM 36.2656 -90.9697 311° West 434 499 29,900 1,140 Climbing Memphis Center
06:43PM 36.3400 -91.0808 310° West 434 499 31,300 1,080 Climbing Memphis Center
06:44PM 36.4186 -91.1950 311° West 434 499 32,100 780 Climbing Memphis Center
06:45PM 36.5072 -91.3172 312° West 428 493 32,900 420 Climbing Memphis Center
06:46PM 36.5833 -91.4319 310° West 433 498 33,000 300 Climbing Memphis Center
06:49PM 36.7717 -91.7067 311° West 429 494 34,000 240 Climbing Kansas City Center
06:50PM 36.8492 -91.8194 311° West 426 490 34,000  Level Kansas City Center
06:51PM 36.9264 -91.9358 310° West 429 494 34,000  Level Kansas City Center
06:52PM 37.0167 -92.0381 318° Northwest 434 499 34,000  Level Kansas City Center
06:53PM 37.1044 -92.1433 316° Northwest 435 501 34,000  Level Kansas City Center
06:54PM 37.1936 -92.2486 317° Northwest 436 502 34,000  Level Kansas City Center
06:55PM 37.2811 -92.3536 316° Northwest 434 499 34,000  Level Kansas City Center
06:56PM 37.3675 -92.4581 316° Northwest 430 495 34,000  Level Kansas City Center
06:57PM 37.4703 -92.5819 316° Northwest 425 489 34,000  Level Kansas City Center
06:58PM 37.5553 -92.6847 316° Northwest 422 486 34,000  Level Kansas City Center
06:59PM 37.6403 -92.7878 316° Northwest 420 483 34,000  Level Kansas City Center
07:00PM 37.7250 -92.8925 316° Northwest 420 483 34,000 -960 Level Kansas City Center
07:06PM 38.1960 -93.4700 316° Northwest 343 395 27,500 -1,260 Descending FlightAware
07:07PM 38.2680 -93.5590 316° Northwest 326 375 25,400 -1,980 Descending FlightAware
07:07PM 38.3060 -93.6060 316° Northwest 319 367 24,200 -900 Descending FlightAware
07:08PM 38.3460 -93.6560 316° Northwest 319 367 24,200  Level FlightAware
07:09PM 38.3810 -93.7020 314° West 319 367 24,200 -2,940 Level FlightAware
07:10PM 38.4370 -93.7710 316° Northwest 299 344 20,100 -3,840 Descending FlightAware
07:10PM 38.4820 -93.8280 315° West 293 337 18,500 -2,100 Descending FlightAware
07:11PM 38.5180 -93.8750 314° West 283 326 17,200 -1,920 Descending FlightAware
07:12PM 38.5570 -93.9230 316° Northwest 284 327 16,000 -1,860 Descending FlightAware
07:12PM 38.6010 -93.9800 315° West 304 350 14,600 -1,920 Descending FlightAware
07:13PM 38.6430 -94.0300 317° Northwest 301 346 13,300 -1,980 Descending FlightAware
07:14PM 38.6820 -94.0800 315° West 300 345 12,000 -1,440 Descending FlightAware
07:15PM 38.7270 -94.1300 319° Northwest 279 321 11,300 -960 Descending FlightAware
07:15PM 38.7650 -94.1710 320° Northwest 259 298 10,700 -1,020 Descending FlightAware
07:16PM 38.8050 -94.2150 319° Northwest 240 276 9,900 -1,320 Descending FlightAware
07:16PM 38.8260 -94.2370 321° Northwest 242 278 9,200 -1,680 Descending FlightAware
07:17PM 38.8520 -94.2620 323° Northwest 247 284 8,400 -1,620 Descending FlightAware
07:17PM 38.8710 -94.2670 348° North 258 297 8,000 -480 Descending FlightAware
07:18PM 38.9000 -94.2670 360° North 255 293 8,100  Climbing FlightAware
07:18PM 38.9200 -94.2670 360° North 259 298 8,000 -360 Descending FlightAware
07:18PM 38.9430 -94.2680 358° North 254 292 7,900 -180 Descending FlightAware
07:19PM 38.9700 -94.2680 360° North 227 261 7,900 -600 Level FlightAware
07:19PM 39.0110 -94.2660 North 217 250 7,300 -1,080 Descending FlightAware
07:20PM 39.0490 -94.2750 350° North 206 237 6,500 -1,140 Descending FlightAware
07:20PM 39.0760 -94.2880 340° North 202 232 6,000 -660 Descending FlightAware
07:21PM 39.0980 -94.2990 339° North 202 232 5,900 -120 Descending FlightAware
07:21PM 39.1230 -94.3140 335° Northwest 200 230 5,900  Level FlightAware
07:22PM 39.1440 -94.3390 317° Northwest 191 220 5,900  Level FlightAware
07:22PM 39.1600 -94.3580 317° Northwest 198 228 5,900 -780 Level FlightAware
07:23PM 39.1790 -94.3810 317° Northwest 195 224 5,200 -1,560 Descending FlightAware
07:23PM 39.1960 -94.4030 315° West 200 230 4,500 -1,320 Descending FlightAware
07:24PM 39.2170 -94.4290 316° Northwest 200 230 4,000 -600 Descending FlightAware
07:24PM 39.2330 -94.4480 317° Northwest 195 224 4,000 -120 Level FlightAware
07:25PM 39.2490 -94.4760 306° West 195 224 3,900 -120 Descending FlightAware
07:25PM 39.2640 -94.5050 304° West 192 221 3,900  Level FlightAware
07:25PM 39.2700 -94.5200 297° West 190 219 3,900 -480 Level FlightAware
07:25PM 39.2740 -94.5300 297° West 182 209 3,700 -1,080 Descending FlightAware
07:26PM 39.2760 -94.5530 276° West 173 199 3,300 -480 Descending FlightAware
07:26PM 39.2790 -94.5780 279° West 173 199 3,300 -960 Level FlightAware
07:27PM 39.2808 -94.6092 279° West 167 192 2,400 -1,080 Descending Kansas City Center
07:28PM 39.2847 -94.6564 276° West 142 163 1,700 -720 Descending Kansas City Center
07:29PM 39.2886 -94.7011 276° West 132 152 1,000 -720 Descending Kansas City Center